Time,TemperatureF,DewpointF,PressureIn,WindDirection,WindDirectionDegrees,WindSpeedMPH,WindSpeedGustMPH,Humidity,HourlyPrecipIn,Conditions,Clouds,dailyrainin,SoftwareType,DateUTC
2013-02-15 00:00:00,33.3,27.5,29.89,South,180,0.0,0.0,79,0.00,-RA,,0.00,WeatherDisplay:10.37,2013-02-15 05:00:00,
2013-02-15 00:01:00,33.3,27.5,29.89,SSE,158,0.0,0.0,79,0.00,-RA,,0.00,WeatherDisplay:10.37,2013-02-15 05:01:00,
2013-02-15 00:06:00,33.3,27.5,29.89,South,180,0.0,0.0,79,0.00,-RA,,0.00,WeatherDisplay:10.37,2013-02-15 05:06:00,
2013-02-15 00:11:00,32.9,27.1,29.89,South,180,0.0,0.0,79,0.00,-RA,,0.00,WeatherDisplay:10.37,2013-02-15 05:11:00,
2013-02-15 00:12:00,32.9,27.1,29.89,South,180,0.0,0.0,79,0.00,-RA,,0.00,WeatherDisplay:10.37,2013-02-15 05:12:00,
2013-02-15 00:17:00,32.7,26.9,29.89,SSW,202,0.0,0.0,79,0.00,BKN,,0.00,WeatherDisplay:10.37,2013-02-15 05:17:00,
2013-02-15 00:22:00,32.7,26.9,29.89,SSW,202,0.0,0.0,79,0.00,BKN,,0.00,WeatherDisplay:10.37,2013-02-15 05:22:00,
2013-02-15 00:27:00,32.7,26.9,29.89,South,180,0.0,0.0,79,0.00,BKN,,0.00,WeatherDisplay:10.37,2013-02-15 05:27:00,
2013-02-15 00:32:00,32.5,26.7,29.89,WSW,248,0.0,0.0,79,0.00,BKN,,0.00,WeatherDisplay:10.37,2013-02-15 05:32:00,
2013-02-15 00:37:00,32.4,26.9,29.90,SSW,202,0.0,0.1,80,0.00,BKN,,0.00,WeatherDisplay:10.37,2013-02-15 05:37:00,
2013-02-15 00:42:00,32.4,26.9,29.90,South,180,0.0,0.2,80,0.00,BKN,,0.00,WeatherDisplay:10.37,2013-02-15 05:42:00,
2013-02-15 00:47:00,32.5,27.4,29.90,South,180,1.1,1.1,81,0.00,BKN,,0.00,WeatherDisplay:10.37,2013-02-15 05:47:00,
2013-02-15 00:52:00,32.5,27.4,29.90,SW,225,0.0,0.3,81,0.00,BKN,,0.00,WeatherDisplay:10.37,2013-02-15 05:52:00,
2013-02-15 00:57:00,32.2,27.0,29.89,South,180,0.0,0.3,81,0.00,BKN,,0.00,WeatherDisplay:10.37,2013-02-15 05:57:00,
2013-02-15 01:02:00,32.2,27.0,29.89,WSW,248,0.0,0.1,81,0.00,BKN,,0.00,WeatherDisplay:10.37,2013-02-15 06:02:00,
2013-02-15 01:07:00,32.0,26.8,29.89,WSW,248,0.0,0.0,81,0.00,BKN,,0.00,WeatherDisplay:10.37,2013-02-15 06:07:00,
2013-02-15 01:12:00,31.8,26.7,29.89,SW,225,0.0,0.0,81,0.00,BKN,,0.00,WeatherDisplay:10.37,2013-02-15 06:12:00,
2013-02-15 01:17:00,31.8,26.7,29.90,West,270,0.0,0.0,81,0.00,BKN,,0.00,WeatherDisplay:10.37,2013-02-15 06:17:00,
2013-02-15 01:22:00,31.8,27.0,29.90,SW,225,0.0,0.0,82,0.00,BKN,,0.00,WeatherDisplay:10.37,2013-02-15 06:22:00,
2013-02-15 01:27:00,32.2,27.3,29.90,WSW,248,0.0,0.0,82,0.00,BKN,,0.00,WeatherDisplay:10.37,2013-02-15 06:27:00,
2013-02-15 01:32:00,32.0,27.1,29.90,South,180,0.0,0.0,82,0.00,BKN,,0.00,WeatherDisplay:10.37,2013-02-15 06:32:00,
2013-02-15 01:37:00,32.2,27.3,29.89,SSW,202,0.0,0.0,82,0.00,BKN,,0.00,WeatherDisplay:10.37,2013-02-15 06:37:00,
2013-02-15 01:42:00,32.5,27.7,29.89,South,180,0.0,0.0,82,0.00,BKN,,0.00,WeatherDisplay:10.37,2013-02-15 06:42:00,
2013-02-15 01:47:00,32.4,27.5,29.89,SSE,158,0.0,0.0,82,0.00,BKN,,0.00,WeatherDisplay:10.37,2013-02-15 06:47:00,
2013-02-15 01:52:00,32.7,27.8,29.89,WSW,248,0.0,0.1,82,0.00,BKN,,0.00,WeatherDisplay:10.37,2013-02-15 06:52:00,
2013-02-15 01:57:00,32.9,28.0,29.89,West,270,0.0,0.3,82,0.00,BKN,,0.00,WeatherDisplay:10.37,2013-02-15 06:57:00,
2013-02-15 02:02:00,33.3,28.4,29.89,West,270,0.0,0.3,82,0.00,BKN,,0.00,WeatherDisplay:10.37,2013-02-15 07:02:00,
2013-02-15 02:07:00,33.3,28.4,29.89,SW,225,0.0,0.0,82,0.00,BKN,,0.00,WeatherDisplay:10.37,2013-02-15 07:07:00,
2013-02-15 02:12:00,33.4,28.8,29.89,SW,225,0.0,0.1,83,0.00,BKN,,0.00,WeatherDisplay:10.37,2013-02-15 07:12:00,
2013-02-15 02:17:00,33.6,29.0,29.89,South,180,0.0,0.1,83,0.00,BKN,,0.00,WeatherDisplay:10.37,2013-02-15 07:17:00,
2013-02-15 02:22:00,33.6,29.0,29.89,South,180,2.3,2.3,83,0.00,BKN,,0.00,WeatherDisplay:10.37,2013-02-15 07:22:00,
2013-02-15 02:27:00,34.0,29.4,29.89,South,180,0.0,0.2,83,0.00,BKN,,0.00,WeatherDisplay:10.37,2013-02-15 07:27:00,
2013-02-15 02:32:00,34.0,29.4,29.89,SSW,202,0.0,0.1,83,0.00,BKN,,0.00,WeatherDisplay:10.37,2013-02-15 07:32:00,
2013-02-15 02:37:00,34.2,29.5,29.88,SSE,158,0.0,0.0,83,0.00,BKN,,0.00,WeatherDisplay:10.37,2013-02-15 07:37:00,
2013-02-15 02:42:00,34.3,29.7,29.88,South,180,0.0,0.0,83,0.00,BKN,,0.00,WeatherDisplay:10.37,2013-02-15 07:42:00,
2013-02-15 02:47:00,34.2,29.5,29.88,West,270,0.0,0.2,83,0.00,BKN,,0.00,WeatherDisplay:10.37,2013-02-15 07:47:00,
2013-02-15 02:52:00,34.2,29.5,29.88,WSW,248,1.1,1.1,83,0.00,BKN,,0.00,WeatherDisplay:10.37,2013-02-15 07:52:00,
2013-02-15 02:57:00,34.2,29.5,29.88,West,270,2.3,2.3,83,0.00,BKN,,0.00,WeatherDisplay:10.37,2013-02-15 07:57:00,
2013-02-15 03:02:00,34.2,29.5,29.88,WSW,248,2.3,2.3,83,0.00,BKN,,0.00,WeatherDisplay:10.37,2013-02-15 08:02:00,
2013-02-15 03:07:00,34.3,29.7,29.88,WSW,248,2.3,2.3,83,0.00,BKN,,0.00,WeatherDisplay:10.37,2013-02-15 08:07:00,
2013-02-15 03:12:00,34.2,29.5,29.88,South,180,2.3,2.3,83,0.00,BKN,,0.00,WeatherDisplay:10.37,2013-02-15 08:12:00,
2013-02-15 03:17:00,34.2,29.5,29.88,SW,225,0.0,0.5,83,0.00,BKN,,0.00,WeatherDisplay:10.37,2013-02-15 08:17:00,
2013-02-15 03:22:00,34.2,29.5,29.88,SSE,158,0.0,0.0,83,0.00,BKN,,0.00,WeatherDisplay:10.37,2013-02-15 08:22:00,
2013-02-15 03:27:00,34.0,29.4,29.88,South,180,0.0,0.0,83,0.00,BKN,,0.00,WeatherDisplay:10.37,2013-02-15 08:27:00,
2013-02-15 03:32:00,34.0,29.4,29.88,South,180,1.1,1.1,83,0.00,BKN,,0.00,WeatherDisplay:10.37,2013-02-15 08:32:00,
2013-02-15 03:37:00,33.8,29.2,29.88,SSW,202,1.1,1.1,83,0.00,BKN,,0.00,WeatherDisplay:10.37,2013-02-15 08:37:00,
2013-02-15 03:42:00,34.0,29.4,29.88,South,180,1.1,1.1,83,0.00,BKN,,0.00,WeatherDisplay:10.37,2013-02-15 08:42:00,
2013-02-15 03:47:00,34.0,29.4,29.88,South,180,1.1,1.1,83,0.00,BKN,,0.00,WeatherDisplay:10.37,2013-02-15 08:47:00,
2013-02-15 03:52:00,33.6,29.0,29.88,SW,225,0.0,0.1,83,0.00,BKN,,0.00,WeatherDisplay:10.37,2013-02-15 08:52:00,
2013-02-15 03:57:00,33.6,29.0,29.88,SW,225,0.0,0.0,83,0.00,BKN,,0.00,WeatherDisplay:10.37,2013-02-15 08:57:00,
2013-02-15 04:02:00,33.6,29.0,29.88,WNW,292,0.0,0.0,83,0.00,BKN,,0.00,WeatherDisplay:10.37,2013-02-15 09:02:00,
2013-02-15 04:07:00,33.4,28.8,29.88,SW,225,1.1,1.1,83,0.00,BKN,,0.00,WeatherDisplay:10.37,2013-02-15 09:07:00,
2013-02-15 04:12:00,33.4,29.1,29.88,SW,225,2.3,2.3,84,0.00,BKN,,0.00,WeatherDisplay:10.37,2013-02-15 09:12:00,
2013-02-15 04:17:00,33.4,29.1,29.88,South,180,2.3,2.3,84,0.00,BKN,,0.00,WeatherDisplay:10.37,2013-02-15 09:17:00,
2013-02-15 04:22:00,33.4,29.1,29.88,South,180,2.3,2.3,84,0.00,BKN,,0.00,WeatherDisplay:10.37,2013-02-15 09:22:00,
2013-02-15 04:27:00,33.4,29.1,29.88,WSW,248,2.3,2.3,84,0.00,BKN,,0.00,WeatherDisplay:10.37,2013-02-15 09:27:00,
2013-02-15 04:32:00,33.4,29.1,29.88,South,180,0.0,0.1,84,0.00,BKN,,0.00,WeatherDisplay:10.37,2013-02-15 09:32:00,
2013-02-15 04:37:00,33.4,29.1,29.89,SW,225,0.0,0.0,84,0.00,BKN,,0.00,WeatherDisplay:10.37,2013-02-15 09:37:00,
2013-02-15 04:42:00,33.3,28.9,29.89,South,180,0.0,0.0,84,0.00,BKN,,0.00,WeatherDisplay:10.37,2013-02-15 09:42:00,
2013-02-15 04:47:00,33.3,28.9,29.89,South,180,0.0,0.0,84,0.00,BKN,,0.00,WeatherDisplay:10.37,2013-02-15 09:47:00,
2013-02-15 04:52:00,33.1,28.8,29.89,SW,225,0.0,0.0,84,0.00,BKN,,0.00,WeatherDisplay:10.37,2013-02-15 09:52:00,
2013-02-15 04:57:00,32.9,28.6,29.89,South,180,0.0,0.0,84,0.00,BKN,,0.00,WeatherDisplay:10.37,2013-02-15 09:57:00,
2013-02-15 05:02:00,32.9,28.6,29.89,SSW,202,0.0,0.0,84,0.00,BKN,,0.00,WeatherDisplay:10.37,2013-02-15 10:02:00,
2013-02-15 05:07:00,32.5,28.2,29.89,SW,225,0.0,0.0,84,0.00,BKN,,0.00,WeatherDisplay:10.37,2013-02-15 10:07:00,
2013-02-15 05:12:00,32.5,28.2,29.89,NW,315,0.0,0.0,84,0.00,BKN,,0.00,WeatherDisplay:10.37,2013-02-15 10:12:00,
2013-02-15 05:17:00,32.4,28.4,29.88,NW,315,0.0,0.0,85,0.00,BKN,,0.00,WeatherDisplay:10.37,2013-02-15 10:17:00,
2013-02-15 05:22:00,32.2,28.2,29.88,NW,315,0.0,0.0,85,0.00,BKN,,0.00,WeatherDisplay:10.37,2013-02-15 10:22:00,
2013-02-15 05:27:00,32.2,28.2,29.88,NW,315,0.0,0.0,85,0.00,BKN,,0.00,WeatherDisplay:10.37,2013-02-15 10:27:00,
2013-02-15 05:32:00,31.8,27.5,29.88,SSW,202,0.0,0.0,84,0.00,BKN,,0.00,WeatherDisplay:10.37,2013-02-15 10:32:00,
2013-02-15 05:37:00,31.6,27.4,29.88,SSW,202,0.0,0.0,84,0.00,BKN,,0.00,WeatherDisplay:10.37,2013-02-15 10:37:00,
2013-02-15 05:42:00,31.5,27.2,29.88,ESE,112,0.0,0.0,84,0.00,BKN,,0.00,WeatherDisplay:10.37,2013-02-15 10:42:00,
2013-02-15 05:47:00,31.5,27.5,29.88,SE,135,0.0,0.0,85,0.00,BKN,,0.00,WeatherDisplay:10.37,2013-02-15 10:47:00,
2013-02-15 05:52:00,31.3,27.3,29.88,SSE,158,0.0,0.0,85,0.00,BKN,,0.00,WeatherDisplay:10.37,2013-02-15 10:52:00,
2013-02-15 05:57:00,31.1,27.1,29.88,SSE,158,0.0,0.0,85,0.00,BKN,,0.00,WeatherDisplay:10.37,2013-02-15 10:57:00,
2013-02-15 06:02:00,31.1,27.1,29.88,NW,315,0.0,0.0,85,0.00,BKN,,0.00,WeatherDisplay:10.37,2013-02-15 11:02:00,
2013-02-15 06:07:00,31.1,27.1,29.88,NW,315,0.0,0.0,85,0.00,BKN,,0.00,WeatherDisplay:10.37,2013-02-15 11:07:00,
2013-02-15 06:12:00,31.1,27.1,29.88,NW,315,0.0,0.0,85,0.00,BKN,,0.00,WeatherDisplay:10.37,2013-02-15 11:12:00,
2013-02-15 06:17:00,31.1,27.4,29.88,NW,315,0.0,0.0,86,0.00,BKN,,0.00,WeatherDisplay:10.37,2013-02-15 11:17:00,
2013-02-15 06:22:00,30.7,27.0,29.88,NW,315,0.0,0.0,86,0.00,BKN,,0.00,WeatherDisplay:10.37,2013-02-15 11:22:00,
2013-02-15 06:27:00,30.7,27.0,29.88,WSW,248,0.0,0.0,86,0.00,BKN,,0.00,WeatherDisplay:10.37,2013-02-15 11:27:00,
2013-02-15 06:32:00,30.6,26.9,29.88,NW,315,0.0,0.0,86,0.00,BKN,,0.00,WeatherDisplay:10.37,2013-02-15 11:32:00,
2013-02-15 06:37:00,30.4,26.7,29.88,SW,225,0.0,0.0,86,0.00,BKN,,0.00,WeatherDisplay:10.37,2013-02-15 11:37:00,
2013-02-15 06:42:00,30.4,26.7,29.88,SSW,202,0.0,0.0,86,0.00,BKN,,0.00,WeatherDisplay:10.37,2013-02-15 11:42:00,
2013-02-15 06:47:00,30.4,26.7,29.88,NW,315,0.0,0.0,86,0.00,BKN,,0.00,WeatherDisplay:10.37,2013-02-15 11:47:00,
2013-02-15 06:52:00,30.4,26.7,29.88,NW,315,0.0,0.0,86,0.00,BKN,,0.00,WeatherDisplay:10.37,2013-02-15 11:52:00,
2013-02-15 06:57:00,30.4,26.7,29.88,WSW,248,0.0,0.0,86,0.00,BKN,,0.00,WeatherDisplay:10.37,2013-02-15 11:57:00,
2013-02-15 07:02:00,30.4,26.7,29.88,South,180,0.0,0.0,86,0.00,BKN,,0.00,WeatherDisplay:10.37,2013-02-15 12:02:00,
2013-02-15 07:07:00,30.4,26.7,29.88,SSW,202,0.0,0.0,86,0.00,BKN,,0.00,WeatherDisplay:10.37,2013-02-15 12:07:00,
2013-02-15 07:12:00,30.4,26.7,29.88,South,180,0.0,0.0,86,0.00,BKN,,0.00,WeatherDisplay:10.37,2013-02-15 12:12:00,
2013-02-15 07:17:00,30.4,26.7,29.88,SSW,202,0.0,0.0,86,0.00,BKN,,0.00,WeatherDisplay:10.37,2013-02-15 12:17:00,
2013-02-15 07:22:00,30.4,26.7,29.88,SSW,202,0.0,0.0,86,0.00,BKN,,0.00,WeatherDisplay:10.37,2013-02-15 12:22:00,
2013-02-15 07:27:00,30.7,27.0,29.88,SSW,202,0.0,0.0,86,0.00,BKN,,0.00,WeatherDisplay:10.37,2013-02-15 12:27:00,
2013-02-15 07:32:00,30.7,27.0,29.88,WSW,248,0.0,0.0,86,0.00,BKN,,0.00,WeatherDisplay:10.37,2013-02-15 12:32:00,
2013-02-15 07:37:00,31.1,27.7,29.90,SW,225,0.0,0.0,87,0.00,BKN,,0.00,WeatherDisplay:10.37,2013-02-15 12:37:00,
2013-02-15 07:42:00,31.1,27.7,29.90,South,180,0.0,0.0,87,0.00,BKN,,0.00,WeatherDisplay:10.37,2013-02-15 12:42:00,
2013-02-15 07:47:00,31.8,28.4,29.90,SSE,158,0.0,0.0,87,0.00,BKN,,0.00,WeatherDisplay:10.37,2013-02-15 12:47:00,
2013-02-15 07:52:00,31.8,28.7,29.90,SSW,202,0.0,0.1,88,0.00,BKN,,0.00,WeatherDisplay:10.37,2013-02-15 12:52:00,
2013-02-15 07:57:00,32.5,29.4,29.90,SW,225,2.3,2.3,88,0.00,BKN,,0.00,WeatherDisplay:10.37,2013-02-15 12:57:00,
2013-02-15 08:02:00,32.7,29.6,29.90,SW,225,1.1,1.1,88,0.00,BKN,,0.00,WeatherDisplay:10.37,2013-02-15 13:02:00,
2013-02-15 08:07:00,33.4,30.3,29.90,West,270,0.0,0.2,88,0.00,BKN,,0.00,WeatherDisplay:10.37,2013-02-15 13:07:00,
2013-02-15 08:12:00,34.0,30.8,29.90,West,270,0.0,0.1,88,0.00,BKN,,0.00,WeatherDisplay:10.37,2013-02-15 13:12:00,
2013-02-15 08:17:00,34.7,31.5,29.91,WSW,248,3.5,3.5,88,0.00,BKN,,0.00,WeatherDisplay:10.37,2013-02-15 13:17:00,
2013-02-15 08:22:00,34.9,31.4,29.91,South,180,1.1,1.1,87,0.00,BKN,,0.00,WeatherDisplay:10.37,2013-02-15 13:22:00,
2013-02-15 08:27:00,35.6,32.1,29.91,SSW,202,2.3,2.3,87,0.00,BKN,,0.00,WeatherDisplay:10.37,2013-02-15 13:27:00,
2013-02-15 08:32:00,36.1,32.4,29.91,West,270,2.3,2.3,86,0.00,BKN,,0.00,WeatherDisplay:10.37,2013-02-15 13:32:00,
2013-02-15 08:37:00,36.5,32.4,29.91,WNW,292,3.5,3.5,85,0.00,BKN,,0.00,WeatherDisplay:10.37,2013-02-15 13:37:00,
2013-02-15 08:42:00,37.0,32.9,29.91,SE,135,2.3,2.3,85,0.00,BKN,,0.00,WeatherDisplay:10.37,2013-02-15 13:42:00,
2013-02-15 08:47:00,37.6,33.2,29.91,WSW,248,2.3,2.3,84,0.00,BKN,,0.00,WeatherDisplay:10.37,2013-02-15 13:47:00,
2013-02-15 08:52:00,37.9,33.2,29.91,WSW,248,5.8,5.8,83,0.00,BKN,,0.00,WeatherDisplay:10.37,2013-02-15 13:52:00,
2013-02-15 08:57:00,38.5,33.5,29.90,SW,225,4.6,4.6,82,0.00,BKN,,0.00,WeatherDisplay:10.37,2013-02-15 13:57:00,
2013-02-15 09:02:00,38.8,33.8,29.90,ESE,112,5.8,5.8,82,0.00,BKN,,0.00,WeatherDisplay:10.37,2013-02-15 14:02:00,
2013-02-15 09:07:00,39.2,34.2,29.90,West,270,3.5,3.5,82,0.00,BKN,,0.00,WeatherDisplay:10.37,2013-02-15 14:07:00,
2013-02-15 09:12:00,39.4,34.0,29.90,WNW,292,3.5,3.5,81,0.00,BKN,,0.00,WeatherDisplay:10.37,2013-02-15 14:12:00,
2013-02-15 09:17:00,39.7,34.1,29.91,SW,225,4.6,4.6,80,0.00,BKN,,0.00,WeatherDisplay:10.37,2013-02-15 14:17:00,
2013-02-15 09:22:00,40.1,34.4,29.91,West,270,3.5,3.5,80,0.00,BKN,,0.00,WeatherDisplay:10.37,2013-02-15 14:22:00,
2013-02-15 09:27:00,40.5,34.8,29.91,SSW,202,0.0,1.7,80,0.00,BKN,,0.00,WeatherDisplay:10.37,2013-02-15 14:27:00,
2013-02-15 09:32:00,40.8,34.8,29.91,South,180,2.3,2.3,79,0.00,BKN,,0.00,WeatherDisplay:10.37,2013-02-15 14:32:00,
2013-02-15 09:37:00,41.2,34.8,29.90,SSW,202,3.5,3.5,78,0.00,BKN,,0.00,WeatherDisplay:10.37,2013-02-15 14:37:00,
2013-02-15 09:42:00,41.4,35.0,29.90,West,270,2.3,2.4,78,0.00,BKN,,0.00,WeatherDisplay:10.37,2013-02-15 14:42:00,
2013-02-15 09:47:00,41.9,35.5,29.90,SW,225,2.3,2.3,78,0.00,BKN,,0.00,WeatherDisplay:10.37,2013-02-15 14:47:00,
2013-02-15 09:52:00,42.1,35.1,29.90,South,180,6.9,6.9,76,0.00,BKN,,0.00,WeatherDisplay:10.37,2013-02-15 14:52:00,
2013-02-15 09:57:00,42.6,35.6,29.91,SSW,202,3.5,3.9,76,0.00,BKN,,0.00,WeatherDisplay:10.37,2013-02-15 14:57:00,
2013-02-15 10:02:00,43.2,35.8,29.91,South,180,3.5,3.8,75,0.00,BKN,,0.00,WeatherDisplay:10.37,2013-02-15 15:02:00,
2013-02-15 10:07:00,43.7,35.6,29.91,West,270,8.1,8.1,73,0.00,BKN,,0.00,WeatherDisplay:10.37,2013-02-15 15:07:00,
2013-02-15 10:12:00,44.2,36.1,29.91,West,270,4.6,4.6,73,0.00,BKN,,0.00,WeatherDisplay:10.37,2013-02-15 15:12:00,
2013-02-15 10:17:00,45.0,36.1,29.90,SW,225,4.6,4.6,71,0.00,BKN,,0.00,WeatherDisplay:10.37,2013-02-15 15:17:00,
2013-02-15 10:22:00,45.1,36.3,29.90,SSW,202,3.5,3.5,71,0.00,BKN,,0.00,WeatherDisplay:10.37,2013-02-15 15:22:00,
2013-02-15 10:27:00,45.7,36.1,29.90,NW,315,3.5,3.5,69,0.00,BKN,,0.00,WeatherDisplay:10.37,2013-02-15 15:27:00,
2013-02-15 10:32:00,46.0,36.4,29.90,WSW,248,3.5,3.5,69,0.00,BKN,,0.00,WeatherDisplay:10.37,2013-02-15 15:32:00,
2013-02-15 10:37:00,46.6,36.6,29.90,NW,315,3.5,3.5,68,0.00,BKN,,0.00,WeatherDisplay:10.37,2013-02-15 15:37:00,
2013-02-15 10:42:00,46.9,36.5,29.90,SW,225,4.6,4.6,67,0.00,BKN,,0.00,WeatherDisplay:10.37,2013-02-15 15:42:00,
2013-02-15 10:47:00,47.1,36.7,29.90,West,270,4.6,4.6,67,0.00,BKN,,0.00,WeatherDisplay:10.37,2013-02-15 15:47:00,
2013-02-15 10:52:00,47.5,36.7,29.90,NNE,22,2.3,2.3,66,0.00,BKN,,0.00,WeatherDisplay:10.37,2013-02-15 15:52:00,
2013-02-15 10:57:00,47.8,37.0,29.90,WSW,248,2.3,2.4,66,0.00,BKN,,0.00,WeatherDisplay:10.37,2013-02-15 15:57:00,
2013-02-15 11:02:00,47.8,36.6,29.90,South,180,5.8,5.8,65,0.00,BKN,,0.00,WeatherDisplay:10.37,2013-02-15 16:02:00,
2013-02-15 11:07:00,48.2,36.6,29.90,West,270,2.3,2.4,64,0.00,BKN,,0.00,WeatherDisplay:10.37,2013-02-15 16:07:00,
2013-02-15 11:12:00,48.6,36.5,29.90,SE,135,6.9,6.9,63,0.00,BKN,,0.00,WeatherDisplay:10.37,2013-02-15 16:12:00,
2013-02-15 11:17:00,49.1,37.4,29.89,SSE,158,3.5,3.5,64,0.00,BKN,,0.00,WeatherDisplay:10.37,2013-02-15 16:17:00,
2013-02-15 11:22:00,49.1,36.6,29.89,SW,225,4.6,4.6,62,0.00,BKN,,0.00,WeatherDisplay:10.37,2013-02-15 16:22:00,
2013-02-15 11:27:00,49.5,37.4,29.89,WNW,292,4.6,4.6,63,0.00,BKN,,0.00,WeatherDisplay:10.37,2013-02-15 16:27:00,
2013-02-15 11:32:00,49.6,37.1,29.89,SW,225,5.8,5.8,62,0.00,BKN,,0.00,WeatherDisplay:10.37,2013-02-15 16:32:00,
2013-02-15 11:37:00,49.8,36.9,29.88,South,180,5.8,5.8,61,0.00,BKN,,0.00,WeatherDisplay:10.37,2013-02-15 16:37:00,
2013-02-15 11:42:00,50.2,37.2,29.88,West,270,5.1,5.1,61,0.00,BKN,,0.00,WeatherDisplay:10.37,2013-02-15 16:42:00,
2013-02-15 11:47:00,50.5,37.2,29.88,WSW,248,4.6,4.6,60,0.00,BKN,,0.00,WeatherDisplay:10.37,2013-02-15 16:47:00,
2013-02-15 11:52:00,50.7,36.9,29.88,SW,225,6.9,6.9,59,0.00,BKN,,0.00,WeatherDisplay:10.37,2013-02-15 16:52:00,
2013-02-15 11:57:00,51.3,37.0,29.87,SW,225,3.5,3.5,58,0.00,BKN,,0.00,WeatherDisplay:10.37,2013-02-15 16:57:00,
2013-02-15 12:02:00,51.3,37.0,29.87,WSW,248,3.5,3.5,58,0.00,BKN,,0.00,WeatherDisplay:10.37,2013-02-15 17:02:00,
2013-02-15 12:08:00,51.8,37.5,29.87,SW,225,3.5,3.5,58,0.00,BKN,,0.00,WeatherDisplay:10.37,2013-02-15 17:08:00,
2013-02-15 12:13:00,51.8,36.6,29.87,SW,225,3.5,3.5,56,0.00,BKN,,0.00,WeatherDisplay:10.37,2013-02-15 17:13:00,
2013-02-15 12:18:00,52.2,36.9,29.86,West,270,6.9,6.9,56,0.00,BKN,,0.00,WeatherDisplay:10.37,2013-02-15 17:18:00,
2013-02-15 12:23:00,52.2,36.5,29.86,South,180,5.8,5.8,55,0.00,BKN,,0.00,WeatherDisplay:10.37,2013-02-15 17:23:00,
2013-02-15 12:28:00,52.7,37.0,29.86,SW,225,4.6,4.6,55,0.00,BKN,,0.00,WeatherDisplay:10.37,2013-02-15 17:28:00,
2013-02-15 12:33:00,53.1,36.8,29.86,WNW,292,4.6,4.6,54,0.00,BKN,,0.00,WeatherDisplay:10.37,2013-02-15 17:33:00,
2013-02-15 12:38:00,53.4,37.2,29.85,SE,135,4.6,4.6,54,0.00,BKN,,0.00,WeatherDisplay:10.37,2013-02-15 17:38:00,
2013-02-15 12:43:00,53.6,36.9,29.85,South,180,8.1,8.1,53,0.00,BKN,,0.00,WeatherDisplay:10.37,2013-02-15 17:43:00,
2013-02-15 12:48:00,53.8,36.6,29.85,SSE,158,6.9,6.9,52,0.00,BKN,,0.00,WeatherDisplay:10.37,2013-02-15 17:48:00,
2013-02-15 12:53:00,54.1,37.4,29.85,WNW,292,3.5,3.7,53,0.00,BKN,,0.00,WeatherDisplay:10.37,2013-02-15 17:53:00,
2013-02-15 12:58:00,54.1,36.9,29.84,SSE,158,5.8,5.8,52,0.00,BKN,,0.00,WeatherDisplay:10.37,2013-02-15 17:58:00,
2013-02-15 13:03:00,54.3,37.1,29.84,SW,225,6.1,6.1,52,0.00,BKN,,0.00,WeatherDisplay:10.37,2013-02-15 18:03:00,
2013-02-15 13:08:00,54.9,37.1,29.84,West,270,6.9,6.9,51,0.00,BKN,,0.00,WeatherDisplay:10.37,2013-02-15 18:08:00,
2013-02-15 13:13:00,54.9,37.1,29.84,WSW,248,7.2,7.2,51,0.00,BKN,,0.00,WeatherDisplay:10.37,2013-02-15 18:13:00,
2013-02-15 13:18:00,55.6,37.7,29.82,SW,225,4.7,4.7,51,0.00,BKN,,0.00,WeatherDisplay:10.37,2013-02-15 18:18:00,
2013-02-15 13:23:00,55.6,37.2,29.82,WSW,248,4.6,4.6,50,0.00,BKN,,0.00,WeatherDisplay:10.37,2013-02-15 18:23:00,
2013-02-15 13:28:00,55.9,36.5,29.82,SSW,202,9.2,9.2,48,0.00,BKN,,0.00,WeatherDisplay:10.37,2013-02-15 18:28:00,
2013-02-15 13:33:00,56.1,36.7,29.82,SE,135,7.0,7.0,48,0.00,BKN,,0.00,WeatherDisplay:10.37,2013-02-15 18:33:00,
2013-02-15 13:38:00,56.3,36.8,29.82,WSW,248,9.2,9.2,48,0.00,BKN,,0.00,WeatherDisplay:10.37,2013-02-15 18:38:00,
2013-02-15 13:43:00,56.5,37.0,29.82,SSE,158,6.9,6.9,48,0.00,BKN,,0.00,WeatherDisplay:10.37,2013-02-15 18:43:00,
2013-02-15 13:48:00,56.7,36.6,29.82,SW,225,13.8,13.8,47,0.00,BKN,,0.00,WeatherDisplay:10.37,2013-02-15 18:48:00,
2013-02-15 13:53:00,57.0,37.0,29.82,SSE,158,3.5,5.2,47,0.00,BKN,,0.00,WeatherDisplay:10.37,2013-02-15 18:53:00,
2013-02-15 13:58:00,57.0,36.4,29.81,WSW,248,6.9,6.9,46,0.00,BKN,,0.00,WeatherDisplay:10.37,2013-02-15 18:58:00,
2013-02-15 14:03:00,57.4,37.3,29.81,WSW,248,8.5,8.5,47,0.00,BKN,,0.00,WeatherDisplay:10.37,2013-02-15 19:03:00,
2013-02-15 14:08:00,57.2,35.5,29.81,SSW,202,13.8,13.8,44,0.00,BKN,,0.00,WeatherDisplay:10.37,2013-02-15 19:08:00,
2013-02-15 14:13:00,57.2,36.0,29.81,WSW,248,11.5,11.5,45,0.00,BKN,,0.00,WeatherDisplay:10.37,2013-02-15 19:13:00,
2013-02-15 14:18:00,57.6,35.2,29.80,WSW,248,9.1,9.1,43,0.00,BKN,,0.00,WeatherDisplay:10.37,2013-02-15 19:18:00,
2013-02-15 14:23:00,57.4,35.6,29.80,SW,225,8.1,8.1,44,0.00,BKN,,0.00,WeatherDisplay:10.37,2013-02-15 19:23:00,
2013-02-15 14:42:00,57.4,35.0,29.79,WSW,248,7.4,7.4,43,0.00,BKN,,0.00,WeatherDisplay:10.37,2013-02-15 19:42:00,
2013-02-15 14:48:00,57.4,35.0,29.79,South,180,4.6,4.6,43,0.00,BKN,,0.00,WeatherDisplay:10.37,2013-02-15 19:48:00,
2013-02-15 14:53:00,57.4,34.5,29.79,SSE,158,9.2,9.2,42,0.00,BKN,,0.00,WeatherDisplay:10.37,2013-02-15 19:53:00,
2013-02-15 14:58:00,57.4,35.0,29.79,SSW,202,8.5,8.5,43,0.00,BKN,,0.00,WeatherDisplay:10.37,2013-02-15 19:58:00,
2013-02-15 15:03:00,57.2,35.5,29.79,WNW,292,4.6,4.9,44,0.00,BKN,,0.00,WeatherDisplay:10.37,2013-02-15 20:03:00,
2013-02-15 15:08:00,57.2,35.5,29.79,WSW,248,6.9,6.9,44,0.00,BKN,,0.00,WeatherDisplay:10.37,2013-02-15 20:08:00,
2013-02-15 15:13:00,57.4,35.6,29.79,WSW,248,6.9,6.9,44,0.00,BKN,,0.00,WeatherDisplay:10.37,2013-02-15 20:13:00,
2013-02-15 15:18:00,57.2,34.9,29.80,West,270,6.9,6.9,43,0.00,BKN,,0.00,WeatherDisplay:10.37,2013-02-15 20:18:00,
2013-02-15 15:23:00,57.4,35.0,29.80,SW,225,8.1,8.1,43,0.00,BKN,,0.00,WeatherDisplay:10.37,2013-02-15 20:23:00,
2013-02-15 15:28:00,57.0,34.7,29.80,South,180,5.8,5.8,43,0.00,BKN,,0.00,WeatherDisplay:10.37,2013-02-15 20:28:00,
2013-02-15 15:33:00,56.5,34.2,29.80,NW,315,6.2,6.2,43,0.00,BKN,,0.00,WeatherDisplay:10.37,2013-02-15 20:33:00,
2013-02-15 15:38:00,56.5,34.2,29.80,West,270,9.2,9.2,43,0.00,BKN,,0.00,WeatherDisplay:10.37,2013-02-15 20:38:00,
2013-02-15 15:43:00,56.3,34.6,29.80,WNW,292,4.6,4.6,44,0.00,BKN,,0.00,WeatherDisplay:10.37,2013-02-15 20:43:00,
2013-02-15 15:48:00,55.8,34.7,29.80,West,270,5.8,5.8,45,0.00,BKN,,0.00,WeatherDisplay:10.37,2013-02-15 20:48:00,
2013-02-15 15:53:00,55.4,34.4,29.80,South,180,4.6,4.6,45,0.00,BKN,,0.00,WeatherDisplay:10.37,2013-02-15 20:53:00,
2013-02-15 15:58:00,55.4,34.4,29.79,South,180,4.6,4.6,45,0.00,BKN,,0.00,WeatherDisplay:10.37,2013-02-15 20:58:00,
2013-02-15 16:03:00,55.6,34.0,29.79,SW,225,6.9,6.9,44,0.00,BKN,,0.00,WeatherDisplay:10.37,2013-02-15 21:03:00,
2013-02-15 16:08:00,55.6,34.0,29.79,NW,315,6.9,6.9,44,0.00,BKN,,0.00,WeatherDisplay:10.37,2013-02-15 21:08:00,
2013-02-15 16:13:00,55.6,34.6,29.79,West,270,5.8,5.8,45,0.00,BKN,,0.00,WeatherDisplay:10.37,2013-02-15 21:13:00,
2013-02-15 16:18:00,55.6,34.6,29.80,WSW,248,5.8,5.8,45,0.00,BKN,,0.00,WeatherDisplay:10.37,2013-02-15 21:18:00,
2013-02-15 16:23:00,55.6,34.0,29.80,NW,315,6.9,6.9,44,0.00,BKN,,0.00,WeatherDisplay:10.37,2013-02-15 21:23:00,
2013-02-15 16:28:00,55.4,34.4,29.80,West,270,2.3,2.9,45,0.00,BKN,,0.00,WeatherDisplay:10.37,2013-02-15 21:28:00,
2013-02-15 16:33:00,55.2,34.2,29.80,West,270,3.5,3.5,45,0.00,BKN,,0.00,WeatherDisplay:10.37,2013-02-15 21:33:00,
2013-02-15 16:38:00,55.0,34.6,29.79,WNW,292,3.5,3.5,46,0.00,BKN,,0.00,WeatherDisplay:10.37,2013-02-15 21:38:00,
2013-02-15 16:43:00,54.9,33.9,29.79,West,270,3.5,3.5,45,0.00,BKN,,0.00,WeatherDisplay:10.37,2013-02-15 21:43:00,
2013-02-15 16:48:00,54.3,34.0,29.79,WSW,248,1.1,2.2,46,0.00,BKN,,0.00,WeatherDisplay:10.37,2013-02-15 21:48:00,
2013-02-15 16:53:00,54.1,33.8,29.79,NW,315,2.3,2.3,46,0.00,BKN,,0.00,WeatherDisplay:10.37,2013-02-15 21:53:00,
2013-02-15 16:58:00,53.6,33.3,29.80,West,270,2.3,2.3,46,0.00,BKN,,0.00,WeatherDisplay:10.37,2013-02-15 21:58:00,
2013-02-15 17:03:00,53.6,33.3,29.80,WSW,248,2.3,2.3,46,0.00,BKN,,0.00,WeatherDisplay:10.37,2013-02-15 22:03:00,
2013-02-15 17:08:00,53.2,33.5,29.80,West,270,1.1,1.1,47,0.00,BKN,,0.00,WeatherDisplay:10.37,2013-02-15 22:08:00,
2013-02-15 17:13:00,53.1,33.3,29.80,NNW,338,2.3,2.3,47,0.00,BKN,,0.00,WeatherDisplay:10.37,2013-02-15 22:13:00,
2013-02-15 17:18:00,52.7,33.0,29.81,NW,315,2.3,2.3,47,0.00,BKN,,0.00,WeatherDisplay:10.37,2013-02-15 22:18:00,
2013-02-15 17:23:00,52.7,33.0,29.81,WSW,248,2.3,2.3,47,0.00,BKN,,0.00,WeatherDisplay:10.37,2013-02-15 22:23:00,
2013-02-15 17:28:00,52.2,33.0,29.81,WNW,292,2.3,2.3,48,0.00,BKN,,0.00,WeatherDisplay:10.37,2013-02-15 22:28:00,
2013-02-15 17:33:00,52.2,33.0,29.81,NW,315,0.0,0.6,48,0.00,BKN,,0.00,WeatherDisplay:10.37,2013-02-15 22:33:00,
2013-02-15 17:38:00,52.0,32.9,29.80,NW,315,3.5,3.5,48,0.00,BKN,,0.00,WeatherDisplay:10.37,2013-02-15 22:38:00,
2013-02-15 17:43:00,51.6,32.6,29.80,NW,315,0.0,0.3,48,0.00,BKN,,0.00,WeatherDisplay:10.37,2013-02-15 22:43:00,
2013-02-15 17:48:00,51.3,32.2,29.80,NW,315,2.3,2.3,48,0.00,BKN,,0.00,WeatherDisplay:10.37,2013-02-15 22:48:00,
2013-02-15 17:53:00,51.3,32.2,29.80,WNW,292,0.0,0.5,48,0.00,BKN,,0.00,WeatherDisplay:10.37,2013-02-15 22:53:00,
2013-02-15 17:58:00,50.7,32.2,29.80,NW,315,2.3,2.3,49,0.00,BKN,,0.00,WeatherDisplay:10.37,2013-02-15 22:58:00,
2013-02-15 18:03:00,50.5,32.6,29.80,NW,315,0.0,0.3,50,0.00,BKN,,0.00,WeatherDisplay:10.37,2013-02-15 23:03:00,
2013-02-15 18:09:00,50.0,32.1,29.80,NW,315,0.0,0.3,50,0.00,BKN,,0.00,WeatherDisplay:10.37,2013-02-15 23:09:00,
2013-02-15 18:14:00,49.8,32.9,29.80,NW,315,0.0,0.3,52,0.00,BKN,,0.00,WeatherDisplay:10.37,2013-02-15 23:14:00,
2013-02-15 18:19:00,49.3,32.4,29.80,NW,315,0.0,0.0,52,0.00,BKN,,0.00,WeatherDisplay:10.37,2013-02-15 23:19:00,
2013-02-15 18:24:00,48.7,32.4,29.80,NW,315,0.0,0.0,53,0.00,BKN,,0.00,WeatherDisplay:10.37,2013-02-15 23:24:00,
2013-02-15 18:29:00,48.4,32.5,29.80,NW,315,0.0,0.0,54,0.00,BKN,,0.00,WeatherDisplay:10.37,2013-02-15 23:29:00,
2013-02-15 18:34:00,48.0,32.2,29.80,NW,315,0.0,0.0,54,0.00,BKN,,0.00,WeatherDisplay:10.37,2013-02-15 23:34:00,
2013-02-15 18:39:00,47.8,32.0,29.80,NNW,338,0.0,0.0,54,0.00,BKN,,0.00,WeatherDisplay:10.37,2013-02-15 23:39:00,
2013-02-15 18:44:00,47.3,31.9,29.80,NNW,338,0.0,0.0,55,0.00,BKN,,0.00,WeatherDisplay:10.37,2013-02-15 23:44:00,
2013-02-15 18:49:00,47.1,31.8,29.80,NNW,338,0.0,0.0,55,0.00,BKN,,0.00,WeatherDisplay:10.37,2013-02-15 23:49:00,
2013-02-15 18:54:00,46.9,32.0,29.80,NNW,338,0.0,0.0,56,0.00,BKN,,0.00,WeatherDisplay:10.37,2013-02-15 23:54:00,
2013-02-15 18:59:00,46.6,31.7,29.80,NW,315,0.0,0.0,56,0.00,BKN,,0.00,WeatherDisplay:10.37,2013-02-15 23:59:00,
2013-02-15 19:04:00,46.2,31.8,29.80,NW,315,1.1,0.0,57,0.00,BKN,,0.00,WeatherDisplay:10.37,2013-02-16 00:04:00,
2013-02-15 19:09:00,45.9,31.9,29.80,NW,315,0.0,0.0,58,0.00,BKN,,0.00,WeatherDisplay:10.37,2013-02-16 00:09:00,
2013-02-15 19:14:00,45.5,31.6,29.80,NW,315,0.0,0.0,58,0.00,BKN,,0.00,WeatherDisplay:10.37,2013-02-16 00:14:00,
2013-02-15 19:19:00,45.5,32.0,29.80,WNW,292,0.0,0.0,59,0.00,BKN,,0.00,WeatherDisplay:10.37,2013-02-16 00:19:00,
2013-02-15 19:24:00,45.0,31.9,29.80,ENE,68,0.0,0.0,60,0.00,BKN,,0.00,WeatherDisplay:10.37,2013-02-16 00:24:00,
2013-02-15 19:29:00,44.8,32.1,29.80,ENE,68,0.0,0.0,61,0.00,BKN,,0.00,WeatherDisplay:10.37,2013-02-16 00:29:00,
2013-02-15 19:34:00,44.4,31.4,29.80,West,270,0.0,0.0,60,0.00,BKN,,0.00,WeatherDisplay:10.37,2013-02-16 00:34:00,
2013-02-15 19:39:00,44.2,31.6,29.80,NW,315,0.0,0.0,61,0.00,BKN,,0.00,WeatherDisplay:10.37,2013-02-16 00:39:00,
2013-02-15 19:44:00,44.1,31.5,29.80,NW,315,0.0,0.0,61,0.00,BKN,,0.00,WeatherDisplay:10.37,2013-02-16 00:44:00,
2013-02-15 19:49:00,44.1,31.5,29.80,NW,315,0.0,0.0,61,0.00,BKN,,0.00,WeatherDisplay:10.37,2013-02-16 00:49:00,
2013-02-15 19:54:00,43.7,31.1,29.80,NW,315,0.0,0.0,61,0.00,BKN,,0.00,WeatherDisplay:10.37,2013-02-16 00:54:00,
2013-02-15 19:59:00,43.7,31.5,29.81,WNW,292,0.0,0.0,62,0.00,BKN,,0.00,WeatherDisplay:10.37,2013-02-16 00:59:00,
2013-02-15 20:04:00,43.7,31.9,29.81,NNE,22,0.0,0.0,63,0.00,BKN,,0.00,WeatherDisplay:10.37,2013-02-16 01:04:00,
2013-02-15 20:09:00,43.7,32.3,29.81,North,0,0.0,0.0,64,0.00,BKN,,0.00,WeatherDisplay:10.37,2013-02-16 01:09:00,
2013-02-15 20:14:00,44.1,32.7,29.81,SE,135,0.0,0.1,64,0.00,BKN,,0.00,WeatherDisplay:10.37,2013-02-16 01:14:00,
2013-02-15 20:19:00,44.1,32.7,29.81,ESE,112,1.1,1.1,64,0.00,BKN,,0.00,WeatherDisplay:10.37,2013-02-16 01:19:00,
2013-02-15 20:24:00,44.1,32.3,29.81,ESE,112,1.1,1.1,63,0.00,BKN,,0.00,WeatherDisplay:10.37,2013-02-16 01:24:00,
2013-02-15 20:29:00,44.4,33.0,29.81,SSE,158,0.0,0.0,64,0.00,BKN,,0.00,WeatherDisplay:10.37,2013-02-16 01:29:00,
2013-02-15 20:34:00,44.4,33.0,29.81,WNW,292,0.0,0.0,64,0.00,BKN,,0.00,WeatherDisplay:10.37,2013-02-16 01:34:00,
2013-02-15 20:39:00,44.2,32.4,29.81,North,0,1.1,0.0,63,0.00,BKN,,0.00,WeatherDisplay:10.37,2013-02-16 01:39:00,
2013-02-15 20:45:00,44.4,33.0,29.81,NW,315,1.1,1.1,64,0.00,BKN,,0.00,WeatherDisplay:10.37,2013-02-16 01:45:00,
2013-02-15 20:50:00,44.4,33.0,29.81,NW,315,0.0,0.1,64,0.00,BKN,,0.00,WeatherDisplay:10.37,2013-02-16 01:50:00,
2013-02-15 20:55:00,44.4,33.0,29.81,NW,315,0.0,0.0,64,0.00,BKN,,0.00,WeatherDisplay:10.37,2013-02-16 01:55:00,
2013-02-15 21:00:00,44.4,33.0,29.82,NW,315,0.0,0.0,64,0.00,BKN,,0.00,WeatherDisplay:10.37,2013-02-16 02:00:00,
2013-02-15 21:05:00,44.4,33.0,29.82,NW,315,0.0,0.0,64,0.00,BKN,,0.00,WeatherDisplay:10.37,2013-02-16 02:05:00,
2013-02-15 21:10:00,44.2,32.8,29.82,WNW,292,0.0,0.0,64,0.00,BKN,,0.00,WeatherDisplay:10.37,2013-02-16 02:10:00,
2013-02-15 21:15:00,44.2,33.2,29.82,WNW,292,0.0,0.0,65,0.00,BKN,,0.00,WeatherDisplay:10.37,2013-02-16 02:15:00,
2013-02-15 21:20:00,44.4,33.0,29.82,West,270,2.3,2.3,64,0.00,BKN,,0.00,WeatherDisplay:10.37,2013-02-16 02:20:00,
2013-02-15 21:25:00,44.4,32.6,29.82,NNW,338,2.3,2.3,63,0.00,BKN,,0.00,WeatherDisplay:10.37,2013-02-16 02:25:00,
2013-02-15 21:30:00,44.6,32.0,29.82,NW,315,2.0,2.0,61,0.00,BKN,,0.00,WeatherDisplay:10.37,2013-02-16 02:30:00,
2013-02-15 21:35:00,44.8,32.5,29.82,NW,315,2.3,2.3,62,0.00,BKN,,0.00,WeatherDisplay:10.37,2013-02-16 02:35:00,
2013-02-15 21:40:00,44.8,32.5,29.82,NW,315,1.1,1.1,62,0.00,BKN,,0.00,WeatherDisplay:10.37,2013-02-16 02:40:00,
2013-02-15 21:45:00,44.8,32.1,29.82,NNW,338,2.3,2.3,61,0.00,BKN,,0.00,WeatherDisplay:10.37,2013-02-16 02:45:00,
2013-02-15 21:50:00,44.8,31.7,29.82,NW,315,2.3,2.3,60,0.00,BKN,,0.00,WeatherDisplay:10.37,2013-02-16 02:50:00,
2013-02-15 21:55:00,45.0,32.3,29.82,NW,315,2.3,2.3,61,0.00,BKN,,0.00,WeatherDisplay:10.37,2013-02-16 02:55:00,
2013-02-15 22:00:00,44.8,32.1,29.82,WNW,292,1.7,1.7,61,0.00,BKN,,0.00,WeatherDisplay:10.37,2013-02-16 03:00:00,
2013-02-15 22:05:00,45.0,31.5,29.82,NNW,338,1.1,1.1,59,0.00,BKN,,0.00,WeatherDisplay:10.37,2013-02-16 03:05:00,
2013-02-15 22:10:00,45.0,31.5,29.82,NW,315,2.3,2.3,59,0.00,BKN,,0.00,WeatherDisplay:10.37,2013-02-16 03:10:00,
2013-02-15 22:15:00,45.0,30.6,29.82,NW,315,2.3,2.3,57,0.00,BKN,,0.00,WeatherDisplay:10.37,2013-02-16 03:15:00,
2013-02-15 22:20:00,45.1,30.8,29.82,West,270,1.1,1.1,57,0.00,BKN,,0.00,WeatherDisplay:10.37,2013-02-16 03:20:00,
2013-02-15 22:25:00,45.1,30.4,29.82,NW,315,2.4,2.4,56,0.00,BKN,,0.00,WeatherDisplay:10.37,2013-02-16 03:25:00,
2013-02-15 22:30:00,45.1,30.4,29.82,NW,315,2.3,2.3,56,0.00,BKN,,0.00,WeatherDisplay:10.37,2013-02-16 03:30:00,
2013-02-15 22:35:00,45.5,30.3,29.82,WNW,292,4.6,4.6,55,0.00,BKN,,0.00,WeatherDisplay:10.37,2013-02-16 03:35:00,
2013-02-15 22:40:00,45.5,29.8,29.84,NW,315,6.6,6.6,54,0.00,BKN,,0.00,WeatherDisplay:10.37,2013-02-16 03:40:00,
2013-02-15 22:45:00,45.7,29.5,29.84,NW,315,12.7,12.7,53,0.00,BKN,,0.00,WeatherDisplay:10.37,2013-02-16 03:45:00,
2013-02-15 22:50:00,45.5,30.7,29.84,NW,315,8.1,8.1,56,0.00,BKN,,0.00,WeatherDisplay:10.37,2013-02-16 03:50:00,
2013-02-15 22:55:00,45.1,30.8,29.84,NW,315,3.5,5.8,57,0.00,BKN,,0.00,WeatherDisplay:10.37,2013-02-16 03:55:00,
2013-02-15 23:00:00,45.0,31.1,29.84,NW,315,7.0,7.0,58,0.00,BKN,,0.00,WeatherDisplay:10.37,2013-02-16 04:00:00,
2013-02-15 23:05:00,44.8,31.7,29.84,NW,315,7.0,7.0,60,0.00,BKN,,0.00,WeatherDisplay:10.37,2013-02-16 04:05:00,
2013-02-15 23:10:00,44.6,32.0,29.84,NW,315,6.9,6.9,61,0.00,BKN,,0.00,WeatherDisplay:10.37,2013-02-16 04:10:00,
2013-02-15 23:15:00,44.2,32.0,29.84,NNE,22,9.2,9.2,62,0.00,BKN,,0.00,WeatherDisplay:10.37,2013-02-16 04:15:00,
2013-02-15 23:20:00,44.1,32.3,29.84,NW,315,4.6,4.6,63,0.00,BKN,,0.00,WeatherDisplay:10.37,2013-02-16 04:20:00,
2013-02-15 23:25:00,44.1,32.7,29.84,NNW,338,8.1,8.1,64,0.00,BKN,,0.00,WeatherDisplay:10.37,2013-02-16 04:25:00,
2013-02-15 23:30:00,43.7,32.7,29.84,NW,315,5.8,5.8,65,0.00,BKN,,0.00,WeatherDisplay:10.37,2013-02-16 04:30:00,
2013-02-15 23:35:00,43.5,32.9,29.84,NW,315,6.9,6.9,66,0.00,BKN,,0.00,WeatherDisplay:10.37,2013-02-16 04:35:00,
2013-02-15 23:40:00,43.3,33.1,29.85,NNW,338,5.8,5.8,67,0.00,BKN,,0.00,WeatherDisplay:10.37,2013-02-16 04:40:00,
2013-02-15 23:45:00,43.0,33.5,29.85,NW,315,9.2,9.2,69,0.00,BKN,,0.00,WeatherDisplay:10.37,2013-02-16 04:45:00,
2013-02-15 23:50:00,42.8,33.7,29.85,North,0,4.6,4.8,70,0.00,BKN,,0.00,WeatherDisplay:10.37,2013-02-16 04:50:00,
2013-02-15 23:55:00,42.4,33.7,29.85,NNW,338,8.1,8.1,71,0.00,BKN,,0.00,WeatherDisplay:10.37,2013-02-16 04:55:00,